Delavan, Wisconsin, United States (53115)
Lat: 42.63N, Lon: 88.64W
Wx Zone: WIZ070
Local Info
Past Weather Observations for Today

NOTE: This archive is for the closest National Weather Service station to Delavan. Information may differ from the station used for current weather conditions.

Click here for Long-term Archive

Time Weather Temperature Dewpoint Humidity Pressure Winds Precip Visibility
21:55
Clear
19°F / -7°C 18°F / -8°C 93% 30.18 in
(1022 mb)
NW 13.8 mph
(NW 22 kph)
- 7SM
21:35
Partly Cloudy
21°F / -6°C 18°F / -8°C 86% 30.18 in
(1022 mb)
NW 15 mph
(NW 24 kph)
- 7SM
21:15
Mostly Cloudy
21°F / -6°C 18°F / -8°C 86% 30.18 in
(1022 mb)
NNW 10.4 mph
(NNW 17 kph)
- 7SM
20:55
Overcast
21°F / -6°C 19°F / -7°C 93% 30.18 in
(1022 mb)
NNW 10.4 mph
(NNW 17 kph)
- 7SM
20:35
Mostly Cloudy
Fog And Mist
21°F / -6°C 19°F / -7°C 93% 30.18 in
(1022 mb)
NNW 12.7 mph
(NNW 20 kph)
- 5SM
20:15
Overcast
Fog And Mist
21°F / -6°C 19°F / -7°C 93% 30.18 in
(1022 mb)
NNW 10.4 mph
(NNW 17 kph)
- 5SM
19:55
Overcast
Fog And Mist
21°F / -6°C 19°F / -7°C 93% 30.15 in
(1021 mb)
NNW 8.1 mph
(NNW 13 kph)
- 5SM
19:35
Overcast
Fog And Mist
21°F / -6°C 19°F / -7°C 93% 30.15 in
(1021 mb)
N 8.1 mph
(N 13 kph)
- 5SM
19:15
Overcast
Fog And Mist
21°F / -6°C 19°F / -7°C 93% 30.15 in
(1021 mb)
NNW 11.5 mph
(NNW 19 kph)
- 5SM
18:55
Overcast
Fog And Mist
21°F / -6°C 19°F / -7°C 93% 30.15 in
(1021 mb)
NW 13.8 mph
(NW 22 kph)
- 5SM
18:35
Overcast
21°F / -6°C 19°F / -7°C 93% 30.15 in
(1021 mb)
NW 10.4 mph
(NW 17 kph)
- 7SM
18:15
Overcast
Fog And Mist
21°F / -6°C 19°F / -7°C 93% 30.15 in
(1021 mb)
NNW 9.2 mph
(NNW 15 kph)
- 5SM
17:55
Overcast
23°F / -5°C 19°F / -7°C 86% 30.15 in
(1021 mb)
NW 9.2 mph
(NW 15 kph)
- 7SM
17:35
Overcast
23°F / -5°C 21°F / -6°C 93% 30.15 in
(1021 mb)
NW 8.1 mph
(NW 13 kph)
- 7SM
17:15
Overcast
25°F / -4°C 21°F / -6°C 86% 30.15 in
(1021 mb)
NNW 6.9 mph
(NNW 11 kph)
- 7SM
16:55
Overcast
25°F / -4°C 21°F / -6°C 86% 30.15 in
(1021 mb)
NW 4.6 mph
(NW 7 kph)
- 10SM
16:35
Overcast
25°F / -4°C 21°F / -6°C 86% 30.12 in
(1020 mb)
Calm - 7SM
16:15
Overcast
25°F / -4°C 21°F / -6°C 86% 30.12 in
(1020 mb)
NNW 3.5 mph
(NNW 6 kph)
- 7SM
15:55
Overcast
25°F / -4°C 21°F / -6°C 86% 30.12 in
(1020 mb)
N 3.5 mph
(N 6 kph)
- 7SM
15:35
Overcast
25°F / -4°C 21°F / -6°C 86% 30.12 in
(1020 mb)
N 3.5 mph
(N 6 kph)
- 7SM
15:15
Overcast
25°F / -4°C 21°F / -6°C 86% 30.12 in
(1020 mb)
N 4.6 mph
(N 7 kph)
- 7SM
14:55
Mostly Cloudy
25°F / -4°C 21°F / -6°C 86% 30.12 in
(1020 mb)
N 4.6 mph
(N 7 kph)
- 7SM
14:35
Mostly Cloudy
25°F / -4°C 21°F / -6°C 86% 30.12 in
(1020 mb)
N 3.5 mph
(N 6 kph)
- 7SM
14:15
Mostly Cloudy
25°F / -4°C 21°F / -6°C 86% 30.12 in
(1020 mb)
NNW 5.8 mph
(NNW 9 kph)
- 7SM
13:55
Overcast
27°F / -3°C 21°F / -6°C 80% 30.12 in
(1020 mb)
N 4.6 mph
(N 7 kph)
- 10SM
13:35
Mostly Cloudy
27°F / -3°C 21°F / -6°C 80% 30.12 in
(1020 mb)
Calm - 10SM
13:15
Overcast
25°F / -4°C 21°F / -6°C 86% 30.12 in
(1020 mb)
Calm - 7SM
12:55
Mostly Cloudy
25°F / -4°C 21°F / -6°C 86% 30.12 in
(1020 mb)
Calm - 7SM
12:35
Partly Cloudy
25°F / -4°C 19°F / -7°C 80% 30.12 in
(1020 mb)
Calm - 7SM
12:15
Partly Cloudy
Fog And Mist
23°F / -5°C 19°F / -7°C 86% 30.12 in
(1020 mb)
Calm - 5SM
11:55
Clear
Fog And Mist
23°F / -5°C 19°F / -7°C 86% 30.12 in
(1020 mb)
Calm - 5SM
11:35
Clear
Fog And Mist
21°F / -6°C 19°F / -7°C 93% 30.12 in
(1020 mb)
Calm - 4SM
11:15
Clear
Fog And Mist
21°F / -6°C 19°F / -7°C 93% 30.12 in
(1020 mb)
Calm - 5SM
10:55
Clear
Fog And Mist
19°F / -7°C 19°F / -7°C 100% 30.15 in
(1021 mb)
Calm - 4SM
10:35
Clear
Fog And Mist
19°F / -7°C 18°F / -8°C 93% 30.15 in
(1021 mb)
Calm - 4SM
10:15
Clear
Fog And Mist
18°F / -8°C 18°F / -8°C 100% 30.15 in
(1021 mb)
Calm - 3SM
09:55
Clear
Fog And Mist
18°F / -8°C 18°F / -8°C 100% 30.15 in
(1021 mb)
Calm - 2 1/2SM
09:35
Mostly Cloudy
Fog And Mist
18°F / -8°C 18°F / -8°C 100% 30.15 in
(1021 mb)
Calm - 1 3/4SM
09:15
Overcast
Fog And Mist
18°F / -8°C 16°F / -9°C 93% 30.15 in
(1021 mb)
Calm - 1 3/4SM
08:55
Overcast
Fog And Mist
16°F / -9°C 14°F / -10°C 93% 30.15 in
(1021 mb)
Calm - 2 1/2SM
08:35
Mostly Cloudy
Fog And Mist
16°F / -9°C 14°F / -10°C 93% 30.15 in
(1021 mb)
Calm - 2 1/2SM
08:15
Overcast
Light Snow
18°F / -8°C 16°F / -9°C 93% 30.15 in
(1021 mb)
SW 5.8 mph
(SW 9 kph)
- 1/2SM
07:55
Overcast
Light Snow
16°F / -9°C 14°F / -10°C 93% 30.15 in
(1021 mb)
Calm - 1/2SM
07:35
Overcast
Fog And Mist
16°F / -9°C 14°F / -10°C 93% 30.15 in
(1021 mb)
Calm - 1 1/4SM
07:15
Overcast
Fog
14°F / -10°C 14°F / -10°C 100% 30.15 in
(1021 mb)
Calm - 1/2SM
06:55
Overcast
Fog
14°F / -10°C 12°F / -11°C 92% 30.15 in
(1021 mb)
E 4.6 mph
(E 7 kph)
- 1/4SM
06:35
Overcast
Fog And Mist
14°F / -10°C 14°F / -10°C 100% 30.15 in
(1021 mb)
ESE 4.6 mph
(ESE 7 kph)
- 1 1/4SM
06:15
Overcast
Fog And Mist
12°F / -11°C 12°F / -11°C 100% 30.15 in
(1021 mb)
Calm - 2SM
05:55
Overcast
Light Snow
12°F / -11°C 10°F / -12°C 92% 30.15 in
(1021 mb)
Calm - 1 1/4SM
05:35
Overcast
Light Snow
14°F / -10°C 12°F / -11°C 92% 30.15 in
(1021 mb)
Calm - 1/2SM
05:15
Overcast
Fog
14°F / -10°C 12°F / -11°C 92% 30.15 in
(1021 mb)
Calm - 1/4SM
04:55
Overcast
Fog And Mist
12°F / -11°C 10°F / -12°C 92% 30.15 in
(1021 mb)
Calm - 1 3/4SM
04:35
Overcast
Fog And Mist
12°F / -11°C 10°F / -12°C 92% 30.15 in
(1021 mb)
Calm - 2SM
04:15
Overcast
Fog And Mist
12°F / -11°C 10°F / -12°C 92% 30.15 in
(1021 mb)
Calm - 3SM
03:55
Overcast
Light Snow
10°F / -12°C 9°F / -13°C 92% 30.15 in
(1021 mb)
NW 3.5 mph
(NW 6 kph)
- 1 1/2SM
03:35
Overcast
Light Snow
9°F / -13°C 7°F / -14°C 92% 30.15 in
(1021 mb)
NW 3.5 mph
(NW 6 kph)
- 1 1/2SM
03:15
Mostly Cloudy
Light Snow
7°F / -14°C 5°F / -15°C 92% 30.15 in
(1021 mb)
Calm - 2 1/2SM
02:55
Clear
Fog And Mist
7°F / -14°C 5°F / -15°C 92% 30.15 in
(1021 mb)
Calm - 5SM
02:35
Clear
Fog And Mist
5°F / -15°C 3°F / -16°C 92% 30.15 in
(1021 mb)
Calm - 5SM
02:15
Clear
Fog And Mist
5°F / -15°C 3°F / -16°C 92% 30.15 in
(1021 mb)
Calm - 5SM
01:55
Clear
Fog And Mist
5°F / -15°C 3°F / -16°C 92% 30.18 in
(1022 mb)
Calm - 5SM
01:30
Clear
Fog And Mist
5°F / -15°C 3°F / -16°C 92% 30.18 in
(1022 mb)
Calm - 5SM
01:15
Clear
5°F / -15°C 3°F / -16°C 92% 30.18 in
(1022 mb)
Calm - 7SM
00:55
Clear
Fog And Mist
7°F / -14°C 5°F / -15°C 92% 30.18 in
(1022 mb)
WNW 3.5 mph
(WNW 6 kph)
- 5SM
00:35
Clear
Fog And Mist
7°F / -14°C 5°F / -15°C 92% 30.18 in
(1022 mb)
Calm - 4SM
00:15
Clear
Fog And Mist
7°F / -14°C 5°F / -15°C 92% 30.18 in
(1022 mb)
Calm - 5SM
Time Weather Temperature Dewpoint Humidity Pressure Winds Precip Visibility


Weather for websites

WeatherForYou.com, LLC is not responsible for any damages or problems caused by this service. Current weather conditions are obtained from the closest station including government and personal stations which may have varying degrees of accuracy. Weather forecasts are derived from the NOAA NDFD. Like all things, this site belongs to Jesus Christ... He just trusts me to maintain it. If you have any questions or comments email webmaster@weatherforyou.com

Copyright © 2014, WeatherForYou.com LLC. All rights reserved.